This is the latest recevied weather packets stored in our database for station/object VK2BLR. If no packets are shown the sender has not sent any weather packets the latest 1 day(s).
| Time | Temp. | Humidity | Pressure | Rain* | Wind** | Luminosity | Snow |
|---|---|---|---|---|---|---|---|
| 1778056712 | 13.89° C | 62% | 1017 hPa | 0 mm | - | - | - |
| 1778055814 | 14.44° C | 61% | 1016.9 hPa | 0 mm | - | - | - |
| 1778054913 | 15° C | 60% | 1016.8 hPa | 0 mm | - | - | - |
| 1778054012 | 15.56° C | 59% | 1016.8 hPa | 0 mm | - | - | - |
| 1778052214 | 15.56° C | 53% | 1016.6 hPa | 0 mm | - | - | - |
| 1778051314 | 16.11° C | 51% | 1016.4 hPa | 0 mm | - | - | - |
| 1778048613 | 17.78° C | 51% | 1016.6 hPa | 0 mm | - | - | - |
| 1778047714 | 18.33° C | 51% | 1016.6 hPa | 0 mm | - | - | - |
| 1778045013 | 18.89° C | 53% | 1016.5 hPa | 0 mm | - | - | - |
| 1778044113 | 18.89° C | 53% | 1016.3 hPa | 0 mm | - | - | - |
| 1778043212 | 18.89° C | 52% | 1016.5 hPa | 0 mm | - | - | - |
| 1778041414 | 18.89° C | 51% | 1016.6 hPa | 0 mm | - | - | - |
| 1778040513 | 19.44° C | 51% | 1016.8 hPa | 0 mm | - | - | - |
| 1778036914 | 20° C | 50% | 1017.1 hPa | 0 mm | - | - | - |
| 1778035114 | 20° C | 50% | 1017.2 hPa | 0 mm | - | - | - |
| 1778034213 | 20° C | 50% | 1017.4 hPa | 0 mm | - | - | - |
| 1778033312 | 20° C | 49% | 1017.9 hPa | 0 mm | - | - | - |
| 1778032413 | 20.56° C | 48% | 1017.9 hPa | 0 mm | - | - | - |
| 1778031513 | 20.56° C | 51% | 1018.1 hPa | 0 mm | - | - | - |
| 1778028814 | 19.44° C | 53% | 1018.5 hPa | 0 mm | - | - | - |
| 1778027914 | 19.44° C | 53% | 1018.5 hPa | 0 mm | - | - | - |
* Rain latest hour (hover to see other rain measurements)
** Current wind speed in m/s (hover to see current wind gust speed)